Time,TemperatureF,DewpointF,PressureIn,WindDirection,WindDirectionDegrees,WindSpeedMPH,WindSpeedGustMPH,Humidity,HourlyPrecipIn,Conditions,Clouds,dailyrainin,SoftwareType,DateUTC
2013-04-19 00:02:00,73.0,57.2,29.82,South,185,4.1,8.1,57,0.00,,,0.00,WUHU216WMR968SP,2013-04-19 04:02:00,
2013-04-19 00:07:00,73.0,57.2,29.82,ESE,110,4.1,9.5,57,0.00,,,0.00,WUHU216WMR968SP,2013-04-19 04:07:00,
2013-04-19 00:12:00,73.0,57.2,29.82,SE,132,0.0,9.5,57,0.00,,,0.00,WUHU216WMR968SP,2013-04-19 04:12:00,
2013-04-19 00:18:00,73.0,57.2,29.82,WNW,294,0.0,9.5,57,0.00,,,0.00,WUHU216WMR968SP,2013-04-19 04:18:00,
2013-04-19 00:23:00,73.2,57.2,29.82,ESE,104,4.6,8.7,57,0.00,,,0.00,WUHU216WMR968SP,2013-04-19 04:23:00,
2013-04-19 00:28:00,73.2,57.2,29.82,SE,136,5.4,8.7,57,0.00,,,0.00,WUHU216WMR968SP,2013-04-19 04:28:00,
2013-04-19 00:33:00,73.0,57.2,29.82,SSE,147,0.0,8.7,57,0.00,,,0.00,WUHU216WMR968SP,2013-04-19 04:33:00,
2013-04-19 00:38:00,73.0,57.2,29.82,WSW,238,4.1,6.0,57,0.00,,,0.00,WUHU216WMR968SP,2013-04-19 04:38:00,
2013-04-19 00:43:00,73.0,57.2,29.82,SSW,212,0.0,5.4,57,0.00,,,0.00,WUHU216WMR968SP,2013-04-19 04:43:00,
2013-04-19 00:48:00,72.9,57.2,29.82,WNW,294,4.1,6.0,57,0.00,,,0.00,WUHU216WMR968SP,2013-04-19 04:48:00,
2013-04-19 00:53:00,72.7,57.2,29.79,NW,309,0.0,6.0,57,0.00,,,0.00,WUHU216WMR968SP,2013-04-19 04:53:00,
2013-04-19 00:58:00,72.9,57.2,29.79,SE,143,4.1,8.1,57,0.00,,,0.00,WUHU216WMR968SP,2013-04-19 04:58:00,
2013-04-19 01:03:00,72.9,57.2,29.79,South,176,0.0,8.1,57,0.00,,,0.00,WUHU216WMR968SP,2013-04-19 05:03:00,
2013-04-19 01:08:00,72.7,57.2,29.77,ESE,119,0.0,7.4,57,0.00,,,0.00,WUHU216WMR968SP,2013-04-19 05:08:00,
2013-04-19 01:13:00,72.7,57.2,29.77,SSW,203,3.3,7.4,57,0.00,,,0.00,WUHU216WMR968SP,2013-04-19 05:13:00,
2013-04-19 01:18:00,72.3,55.4,29.77,SW,234,0.0,7.4,58,0.00,,,0.00,WUHU216WMR968SP,2013-04-19 05:18:00,
2013-04-19 01:23:00,72.3,55.4,29.79,SSW,196,0.0,6.0,58,0.00,,,0.00,WUHU216WMR968SP,2013-04-19 05:23:00,
2013-04-19 01:28:00,72.3,55.4,29.79,SE,137,4.1,6.0,58,0.00,,,0.00,WUHU216WMR968SP,2013-04-19 05:28:00,
2013-04-19 01:33:00,72.5,57.2,29.79,WNW,301,0.0,8.1,58,0.00,,,0.00,WUHU216WMR968SP,2013-04-19 05:33:00,
2013-04-19 01:38:00,72.3,55.4,29.79,SW,229,0.0,8.1,58,0.00,,,0.00,WUHU216WMR968SP,2013-04-19 05:38:00,
2013-04-19 01:43:00,72.3,55.4,29.79,SSE,148,5.4,7.4,58,0.00,,,0.00,WUHU216WMR968SP,2013-04-19 05:43:00,
2013-04-19 01:48:00,72.5,57.2,29.79,WSW,246,6.0,9.5,58,0.00,,,0.00,WUHU216WMR968SP,2013-04-19 05:48:00,
2013-04-19 01:53:00,72.5,57.2,29.77,SSE,149,0.0,9.5,58,0.00,,,0.00,WUHU216WMR968SP,2013-04-19 05:53:00,
2013-04-19 01:58:00,72.7,57.2,29.77,SE,142,6.0,9.5,58,0.00,,,0.00,WUHU216WMR968SP,2013-04-19 05:58:00,
2013-04-19 02:03:00,72.7,57.2,29.77,NNE,32,0.0,9.5,58,0.00,,,0.00,WUHU216WMR968SP,2013-04-19 06:03:00,
2013-04-19 02:08:00,72.5,59.0,29.77,SE,124,3.3,11.4,59,0.00,,,0.00,WUHU216WMR968SP,2013-04-19 06:08:00,
2013-04-19 02:13:00,72.7,59.0,29.77,SW,231,3.3,11.4,59,0.00,,,0.00,WUHU216WMR968SP,2013-04-19 06:13:00,
2013-04-19 02:18:00,72.7,59.0,29.77,South,186,4.1,10.0,59,0.00,,,0.00,WUHU216WMR968SP,2013-04-19 06:18:00,
2013-04-19 02:23:00,72.9,59.0,29.77,South,175,3.3,8.7,59,0.00,,,0.00,WUHU216WMR968SP,2013-04-19 06:23:00,
2013-04-19 02:28:00,73.0,59.0,29.77,SSE,156,3.3,8.7,60,0.00,,,0.00,WUHU216WMR968SP,2013-04-19 06:28:00,
2013-04-19 02:33:00,73.2,59.0,29.77,SE,140,3.3,9.5,60,0.00,,,0.00,WUHU216WMR968SP,2013-04-19 06:33:00,
2013-04-19 02:38:00,73.2,59.0,29.77,SSW,213,5.4,9.5,60,0.00,,,0.00,WUHU216WMR968SP,2013-04-19 06:38:00,
2013-04-19 02:43:00,73.0,59.0,29.77,NE,47,3.3,8.7,61,0.00,,,0.00,WUHU216WMR968SP,2013-04-19 06:43:00,
2013-04-19 02:48:00,73.2,59.0,29.77,SSW,205,0.0,19.2,61,0.00,,,0.00,WUHU216WMR968SP,2013-04-19 06:48:00,
2013-04-19 02:53:00,73.6,59.0,29.74,West,279,4.6,19.2,61,0.00,,,0.00,WUHU216WMR968SP,2013-04-19 06:53:00,
2013-04-19 02:58:00,73.4,59.0,29.74,SE,141,4.6,13.0,61,0.00,,,0.00,WUHU216WMR968SP,2013-04-19 06:58:00,
2013-04-19 03:03:00,73.4,59.0,29.74,West,276,6.8,13.0,61,0.00,,,0.00,WUHU216WMR968SP,2013-04-19 07:03:00,
2013-04-19 03:09:00,73.2,59.0,29.74,South,173,6.0,8.7,62,0.00,,,0.00,WUHU216WMR968SP,2013-04-19 07:09:00,
2013-04-19 03:14:00,73.4,59.0,29.74,SE,129,7.4,11.4,61,0.00,,,0.00,WUHU216WMR968SP,2013-04-19 07:14:00,
2013-04-19 03:19:00,73.4,59.0,29.74,SSW,201,6.0,15.2,61,0.00,,,0.00,WUHU216WMR968SP,2013-04-19 07:19:00,
2013-04-19 03:24:00,73.4,59.0,29.74,SSW,205,5.4,15.2,62,0.00,,,0.00,WUHU216WMR968SP,2013-04-19 07:24:00,
2013-04-19 03:29:00,73.6,59.0,29.74,ESE,120,4.6,13.0,62,0.00,,,0.00,WUHU216WMR968SP,2013-04-19 07:29:00,
2013-04-19 03:34:00,73.4,59.0,29.74,SW,216,4.6,8.7,62,0.00,,,0.00,WUHU216WMR968SP,2013-04-19 07:34:00,
2013-04-19 03:39:00,73.4,59.0,29.74,SE,128,6.0,15.2,62,0.00,,,0.00,WUHU216WMR968SP,2013-04-19 07:39:00,
2013-04-19 03:44:00,73.4,59.0,29.74,SSW,194,4.6,16.5,62,0.00,,,0.00,WUHU216WMR968SP,2013-04-19 07:44:00,
2013-04-19 03:49:00,73.4,60.8,29.74,SW,221,5.4,16.5,63,0.00,,,0.00,WUHU216WMR968SP,2013-04-19 07:49:00,
2013-04-19 03:54:00,73.0,60.8,29.74,WNW,285,4.1,15.2,64,0.00,,,0.00,WUHU216WMR968SP,2013-04-19 07:54:00,
2013-04-19 03:59:00,73.2,60.8,29.74,WSW,240,4.1,8.7,64,0.00,,,0.00,WUHU216WMR968SP,2013-04-19 07:59:00,
2013-04-19 04:04:00,73.2,60.8,29.74,NW,304,7.4,17.1,64,0.00,,,0.00,WUHU216WMR968SP,2013-04-19 08:04:00,
2013-04-19 04:09:00,73.4,60.8,29.74,WSW,241,5.4,18.5,64,0.00,,,0.00,WUHU216WMR968SP,2013-04-19 08:09:00,
2013-04-19 04:14:00,73.2,60.8,29.74,South,186,9.5,18.5,65,0.00,,,0.00,WUHU216WMR968SP,2013-04-19 08:14:00,
2013-04-19 04:19:00,73.4,60.8,29.74,SSW,203,11.4,23.1,65,0.00,,,0.00,WUHU216WMR968SP,2013-04-19 08:19:00,
2013-04-19 04:24:00,73.2,60.8,29.74,SW,232,4.1,23.1,65,0.00,,,0.00,WUHU216WMR968SP,2013-04-19 08:24:00,
2013-04-19 04:29:00,73.2,60.8,29.74,South,187,7.4,12.2,66,0.00,,,0.00,WUHU216WMR968SP,2013-04-19 08:29:00,
2013-04-19 04:34:00,73.0,62.6,29.74,SSE,148,7.4,13.0,67,0.00,,,0.00,WUHU216WMR968SP,2013-04-19 08:34:00,
2013-04-19 04:39:00,72.7,62.6,29.74,SSE,159,5.4,14.4,67,0.00,,,0.00,WUHU216WMR968SP,2013-04-19 08:39:00,
2013-04-19 04:44:00,72.3,60.8,29.74,West,272,6.0,14.4,68,0.00,,,0.00,WUHU216WMR968SP,2013-04-19 08:44:00,
2013-04-19 04:49:00,72.1,60.8,29.74,WNW,291,4.6,22.5,69,0.00,,,0.00,WUHU216WMR968SP,2013-04-19 08:49:00,
2013-04-19 04:54:00,72.0,60.8,29.74,WSW,244,4.1,22.5,69,0.00,,,0.00,WUHU216WMR968SP,2013-04-19 08:54:00,
2013-04-19 04:59:00,71.8,60.8,29.74,WSW,237,4.1,18.5,69,0.00,,,0.00,WUHU216WMR968SP,2013-04-19 08:59:00,
2013-04-19 05:04:00,72.0,60.8,29.74,South,169,7.4,18.5,69,0.00,,,0.00,WUHU216WMR968SP,2013-04-19 09:04:00,
2013-04-19 05:09:00,72.3,60.8,29.74,SE,146,5.4,12.5,68,0.00,,,0.00,WUHU216WMR968SP,2013-04-19 09:09:00,
2013-04-19 05:14:00,72.0,60.8,29.74,SW,233,5.4,15.8,69,0.00,,,0.00,WUHU216WMR968SP,2013-04-19 09:14:00,
2013-04-19 05:19:00,70.7,60.8,29.74,WSW,243,0.0,15.8,71,0.00,,,0.00,WUHU216WMR968SP,2013-04-19 09:19:00,
2013-04-19 05:24:00,69.6,60.8,29.71,South,187,5.4,11.4,75,0.00,,,0.00,WUHU216WMR968SP,2013-04-19 09:24:00,
2013-04-19 05:29:00,68.9,62.6,29.71,SW,214,7.4,9.5,77,0.00,,,0.00,WUHU216WMR968SP,2013-04-19 09:29:00,
2013-04-19 05:34:00,68.4,60.8,29.71,SE,138,4.6,8.7,80,0.04,,,0.04,WUHU216WMR968SP,2013-04-19 09:34:00,
2013-04-19 05:39:00,68.0,62.6,29.71,SE,142,4.1,12.2,82,0.04,,,0.04,WUHU216WMR968SP,2013-04-19 09:39:00,
2013-04-19 05:44:00,67.6,62.6,29.71,South,175,6.0,12.2,84,0.13,,,0.13,WUHU216WMR968SP,2013-04-19 09:44:00,
2013-04-19 05:49:00,67.1,64.4,29.71,SW,224,0.0,8.7,86,0.13,,,0.13,WUHU216WMR968SP,2013-04-19 09:49:00,
2013-04-19 05:55:00,67.1,64.4,29.71,South,170,5.4,8.7,87,0.18,,,0.18,WUHU216WMR968SP,2013-04-19 09:55:00,
2013-04-19 06:00:00,66.9,62.6,29.71,WSW,251,4.1,9.5,88,0.18,,,0.18,WUHU216WMR968SP,2013-04-19 10:00:00,
2013-04-19 06:05:00,66.9,62.6,29.71,West,272,4.6,9.5,89,0.18,,,0.18,WUHU216WMR968SP,2013-04-19 10:05:00,
2013-04-19 06:10:00,66.6,62.6,29.71,SW,233,0.0,13.0,90,0.26,,,0.26,WUHU216WMR968SP,2013-04-19 10:10:00,
2013-04-19 06:15:00,66.2,64.4,29.71,ESE,111,3.3,13.0,91,0.35,,,0.35,WUHU216WMR968SP,2013-04-19 10:15:00,
2013-04-19 06:20:00,66.0,64.4,29.71,ESE,117,0.0,5.4,92,0.43,,,0.43,WUHU216WMR968SP,2013-04-19 10:20:00,
2013-04-19 06:25:00,65.8,64.4,29.71,WSW,241,3.3,11.4,93,0.47,,,0.47,WUHU216WMR968SP,2013-04-19 10:25:00,
2013-04-19 06:30:00,66.0,64.4,29.71,SSW,198,4.1,11.4,94,0.47,,,0.47,WUHU216WMR968SP,2013-04-19 10:30:00,
2013-04-19 06:35:00,66.0,64.4,29.74,WSW,248,6.8,9.5,94,0.47,,,0.52,WUHU216WMR968SP,2013-04-19 10:35:00,
2013-04-19 06:40:00,66.2,64.4,29.74,SW,229,5.4,11.4,95,0.47,,,0.52,WUHU216WMR968SP,2013-04-19 10:40:00,
2013-04-19 06:45:00,66.0,64.4,29.74,WSW,239,4.1,11.4,95,0.39,,,0.52,WUHU216WMR968SP,2013-04-19 10:45:00,
2013-04-19 06:50:00,66.0,64.4,29.74,West,269,0.0,7.4,95,0.43,,,0.56,WUHU216WMR968SP,2013-04-19 10:50:00,
2013-04-19 06:55:00,65.8,64.4,29.74,SSW,199,3.3,9.5,95,0.39,,,0.56,WUHU216WMR968SP,2013-04-19 10:55:00,
2013-04-19 07:00:00,65.8,64.4,29.74,SSW,213,0.0,9.5,94,0.43,,,0.60,WUHU216WMR968SP,2013-04-19 11:00:00,
2013-04-19 07:05:00,65.7,64.4,29.74,SSW,211,0.0,6.0,95,0.43,,,0.60,WUHU216WMR968SP,2013-04-19 11:05:00,
2013-04-19 07:10:00,65.7,64.4,29.74,SW,227,4.1,6.0,95,0.34,,,0.60,WUHU216WMR968SP,2013-04-19 11:10:00,
2013-04-19 07:15:00,65.7,64.4,29.74,SW,233,0.0,8.1,95,0.30,,,0.65,WUHU216WMR968SP,2013-04-19 11:15:00,
2013-04-19 07:20:00,65.7,64.4,29.74,SSW,212,0.0,8.1,95,0.22,,,0.65,WUHU216WMR968SP,2013-04-19 11:20:00,
2013-04-19 07:25:00,65.7,64.4,29.74,WSW,237,3.3,13.0,96,0.18,,,0.65,WUHU216WMR968SP,2013-04-19 11:25:00,
2013-04-19 07:30:00,65.5,64.4,29.74,NNW,332,4.6,13.0,96,0.22,,,0.69,WUHU216WMR968SP,2013-04-19 11:30:00,
2013-04-19 07:35:00,64.2,62.6,29.77,SW,230,4.6,9.5,95,0.26,,,0.78,WUHU216WMR968SP,2013-04-19 11:35:00,
2013-04-19 07:40:00,63.3,60.8,29.77,SW,231,0.0,9.5,94,0.26,,,0.78,WUHU216WMR968SP,2013-04-19 11:40:00,
2013-04-19 07:45:00,62.8,60.8,29.77,SSW,203,0.0,6.0,94,0.26,,,0.78,WUHU216WMR968SP,2013-04-19 11:45:00,
2013-04-19 07:50:00,62.4,60.8,29.77,West,273,0.0,3.3,94,0.22,,,0.78,WUHU216WMR968SP,2013-04-19 11:50:00,
2013-04-19 07:55:00,62.1,60.8,29.77,WSW,246,0.0,4.1,94,0.22,,,0.78,WUHU216WMR968SP,2013-04-19 11:55:00,
2013-04-19 08:00:00,61.7,60.8,29.77,NW,320,0.0,4.1,94,0.18,,,0.78,WUHU216WMR968SP,2013-04-19 12:00:00,
2013-04-19 08:05:00,61.2,59.0,29.79,SW,224,0.0,4.6,94,0.18,,,0.78,WUHU216WMR968SP,2013-04-19 12:05:00,
2013-04-19 08:10:00,60.6,59.0,29.79,South,187,3.3,9.5,94,0.22,,,0.82,WUHU216WMR968SP,2013-04-19 12:10:00,
2013-04-19 08:15:00,60.1,59.0,29.79,West,266,0.0,9.5,93,0.18,,,0.82,WUHU216WMR968SP,2013-04-19 12:15:00,
2013-04-19 08:20:00,59.5,57.2,29.79,WNW,298,0.0,6.0,93,0.18,,,0.82,WUHU216WMR968SP,2013-04-19 12:20:00,
2013-04-19 08:26:00,59.2,57.2,29.79,North,353,0.0,4.6,93,0.22,,,0.87,WUHU216WMR968SP,2013-04-19 12:26:00,
2013-04-19 08:31:00,58.8,57.2,29.79,WNW,283,0.0,4.6,94,0.13,,,0.87,WUHU216WMR968SP,2013-04-19 12:31:00,
2013-04-19 08:36:00,58.5,57.2,29.79,SSW,213,0.0,5.4,94,0.09,,,0.87,WUHU216WMR968SP,2013-04-19 12:36:00,
2013-04-19 08:41:00,58.1,57.2,29.79,SW,231,0.0,5.4,94,0.09,,,0.87,WUHU216WMR968SP,2013-04-19 12:41:00,
2013-04-19 08:46:00,57.9,55.4,29.79,ESE,105,6.0,7.4,95,0.13,,,0.91,WUHU216WMR968SP,2013-04-19 12:46:00,
2013-04-19 08:51:00,57.7,55.4,29.79,WNW,292,3.3,7.4,96,0.22,,,1.00,WUHU216WMR968SP,2013-04-19 12:51:00,
2013-04-19 08:56:00,57.7,55.4,29.79,WSW,237,0.0,7.4,96,0.22,,,1.00,WUHU216WMR968SP,2013-04-19 12:56:00,
2013-04-19 09:01:00,57.9,55.4,29.79,WSW,253,0.0,4.6,96,0.22,,,1.00,WUHU216WMR968SP,2013-04-19 13:01:00,
2013-04-19 09:06:00,57.7,57.2,29.82,NW,306,0.0,4.6,97,0.22,,,1.00,WUHU216WMR968SP,2013-04-19 13:06:00,
2013-04-19 09:11:00,57.9,57.2,29.82,WSW,249,0.0,4.6,97,0.18,,,1.00,WUHU216WMR968SP,2013-04-19 13:11:00,
2013-04-19 09:16:00,57.7,57.2,29.82,SSW,200,0.0,3.3,97,0.18,,,1.00,WUHU216WMR968SP,2013-04-19 13:16:00,
2013-04-19 09:21:00,57.7,57.2,29.82,NW,320,3.3,4.6,97,0.13,,,1.00,WUHU216WMR968SP,2013-04-19 13:21:00,
2013-04-19 09:26:00,57.6,57.2,29.82,SW,214,0.0,4.6,97,0.13,,,1.00,WUHU216WMR968SP,2013-04-19 13:26:00,
2013-04-19 09:31:00,57.2,57.2,29.82,WNW,286,3.3,6.0,97,0.13,,,1.00,WUHU216WMR968SP,2013-04-19 13:31:00,
2013-04-19 09:37:00,57.0,57.2,29.82,WNW,293,3.3,6.0,97,0.13,,,1.00,WUHU216WMR968SP,2013-04-19 13:37:00,
2013-04-19 09:42:00,56.8,55.4,29.82,WNW,302,0.0,6.0,96,0.13,,,1.00,WUHU216WMR968SP,2013-04-19 13:42:00,
2013-04-19 09:47:00,56.7,55.4,29.82,NW,318,4.1,6.0,96,0.00,,,1.00,WUHU216WMR968SP,2013-04-19 13:47:00,
2013-04-19 09:52:00,56.5,55.4,29.82,NW,308,0.0,6.0,96,0.00,,,1.00,WUHU216WMR968SP,2013-04-19 13:52:00,
2013-04-19 09:57:00,56.1,53.6,29.82,NW,309,3.3,5.4,96,0.04,,,1.04,WUHU216WMR968SP,2013-04-19 13:57:00,
2013-04-19 10:02:00,55.8,53.6,29.82,WNW,301,5.4,6.0,96,0.04,,,1.04,WUHU216WMR968SP,2013-04-19 14:02:00,
2013-04-19 10:07:00,55.4,53.6,29.85,West,280,0.0,6.0,95,0.04,,,1.04,WUHU216WMR968SP,2013-04-19 14:07:00,
2013-04-19 10:12:00,55.2,53.6,29.85,NNW,331,0.0,5.4,96,0.04,,,1.04,WUHU216WMR968SP,2013-04-19 14:12:00,
2013-04-19 10:17:00,55.4,53.6,29.85,NW,312,0.0,5.4,96,0.04,,,1.04,WUHU216WMR968SP,2013-04-19 14:17:00,
2013-04-19 10:22:00,55.4,53.6,29.85,North,3,0.0,4.1,96,0.04,,,1.04,WUHU216WMR968SP,2013-04-19 14:22:00,
2013-04-19 10:27:00,55.4,53.6,29.85,NNW,327,0.0,7.4,96,0.04,,,1.04,WUHU216WMR968SP,2013-04-19 14:27:00,
2013-04-19 10:32:00,55.0,53.6,29.85,NW,319,3.3,7.4,96,0.04,,,1.04,WUHU216WMR968SP,2013-04-19 14:32:00,
2013-04-19 10:37:00,54.7,53.6,29.88,NW,321,0.0,6.0,95,0.04,,,1.04,WUHU216WMR968SP,2013-04-19 14:37:00,
2013-04-19 10:42:00,54.9,53.6,29.88,North,353,0.0,6.0,95,0.04,,,1.04,WUHU216WMR968SP,2013-04-19 14:42:00,
2013-04-19 10:47:00,54.7,53.6,29.88,NW,325,0.0,4.1,95,0.04,,,1.04,WUHU216WMR968SP,2013-04-19 14:47:00,
2013-04-19 10:52:00,54.7,53.6,29.88,North,357,0.0,0.0,95,0.04,,,1.04,WUHU216WMR968SP,2013-04-19 14:52:00,
2013-04-19 10:57:00,54.3,51.8,29.88,NW,315,0.0,4.6,95,0.00,,,1.04,WUHU216WMR968SP,2013-04-19 14:57:00,
2013-04-19 11:02:00,54.0,51.8,29.88,WNW,295,0.0,4.6,94,0.00,,,1.04,WUHU216WMR968SP,2013-04-19 15:02:00,
2013-04-19 11:07:00,53.4,51.8,29.88,WNW,299,4.1,7.4,94,0.00,,,1.04,WUHU216WMR968SP,2013-04-19 15:07:00,
2013-04-19 11:12:00,53.1,51.8,29.88,NNW,337,4.1,7.4,94,0.00,,,1.04,WUHU216WMR968SP,2013-04-19 15:12:00,
2013-04-19 11:17:00,52.9,51.8,29.88,NW,313,4.1,6.0,93,0.00,,,1.04,WUHU216WMR968SP,2013-04-19 15:17:00,
2013-04-19 11:22:00,52.9,51.8,29.88,NW,311,4.1,6.0,93,0.00,,,1.04,WUHU216WMR968SP,2013-04-19 15:22:00,
2013-04-19 11:28:00,52.9,51.8,29.88,West,279,0.0,6.0,93,0.00,,,1.04,WUHU216WMR968SP,2013-04-19 15:28:00,
2013-04-19 11:33:00,53.1,51.8,29.88,NW,311,0.0,6.0,92,0.00,,,1.04,WUHU216WMR968SP,2013-04-19 15:33:00,
2013-04-19 11:38:00,53.2,51.8,29.91,WNW,290,0.0,6.0,92,0.00,,,1.04,WUHU216WMR968SP,2013-04-19 15:38:00,
2013-04-19 11:43:00,53.2,51.8,29.91,NNW,332,3.3,6.0,92,0.00,,,1.04,WUHU216WMR968SP,2013-04-19 15:43:00,
2013-04-19 11:48:00,53.2,51.8,29.91,North,353,4.6,6.0,92,0.00,,,1.04,WUHU216WMR968SP,2013-04-19 15:48:00,
2013-04-19 11:53:00,53.4,51.8,29.91,WNW,293,0.0,5.4,92,0.00,,,1.04,WUHU216WMR968SP,2013-04-19 15:53:00,
2013-04-19 11:58:00,53.4,51.8,29.91,West,264,0.0,5.4,91,0.00,,,1.04,WUHU216WMR968SP,2013-04-19 15:58:00,
2013-04-19 12:03:00,53.4,50.0,29.91,West,262,3.3,8.7,89,0.00,,,1.04,WUHU216WMR968SP,2013-04-19 16:03:00,
2013-04-19 12:08:00,53.1,50.0,29.91,WNW,290,4.6,12.2,87,0.00,,,1.04,WUHU216WMR968SP,2013-04-19 16:08:00,
2013-04-19 12:13:00,53.1,50.0,29.91,West,279,3.3,12.2,86,0.00,,,1.04,WUHU216WMR968SP,2013-04-19 16:13:00,
2013-04-19 12:18:00,53.1,50.0,29.91,WNW,293,0.0,8.1,86,0.00,,,1.04,WUHU216WMR968SP,2013-04-19 16:18:00,
2013-04-19 12:23:00,53.1,50.0,29.94,SW,227,4.1,9.5,86,0.00,,,1.04,WUHU216WMR968SP,2013-04-19 16:23:00,
2013-04-19 12:28:00,53.2,50.0,29.94,West,270,0.0,9.5,85,0.00,,,1.04,WUHU216WMR968SP,2013-04-19 16:28:00,
2013-04-19 12:33:00,53.4,50.0,29.94,WNW,297,3.3,6.8,85,0.00,,,1.04,WUHU216WMR968SP,2013-04-19 16:33:00,
2013-04-19 12:38:00,53.6,48.2,29.94,NW,324,4.6,8.1,83,0.00,,,1.04,WUHU216WMR968SP,2013-04-19 16:38:00,
2013-04-19 12:43:00,54.0,48.2,29.94,WNW,303,4.1,8.1,83,0.00,,,1.04,WUHU216WMR968SP,2013-04-19 16:43:00,
2013-04-19 12:48:00,54.1,48.2,29.94,SW,235,3.3,8.1,82,0.00,,,1.04,WUHU216WMR968SP,2013-04-19 16:48:00,
2013-04-19 12:53:00,54.3,48.2,29.91,West,268,0.0,8.1,82,0.00,,,1.04,WUHU216WMR968SP,2013-04-19 16:53:00,
2013-04-19 12:58:00,54.5,50.0,29.91,NW,312,4.1,7.4,82,0.00,,,1.04,WUHU216WMR968SP,2013-04-19 16:58:00,
2013-04-19 13:03:00,54.0,48.2,29.91,NW,316,4.6,9.5,81,0.00,,,1.04,WUHU216WMR968SP,2013-04-19 17:03:00,
2013-04-19 13:08:00,53.8,48.2,29.91,NNW,329,4.1,9.5,81,0.00,,,1.04,WUHU216WMR968SP,2013-04-19 17:08:00,
2013-04-19 13:13:00,54.0,48.2,29.91,NW,309,5.4,7.4,80,0.00,,,1.04,WUHU216WMR968SP,2013-04-19 17:13:00,
2013-04-19 13:18:00,53.6,46.4,29.91,NNW,335,5.4,8.7,79,0.00,,,1.04,WUHU216WMR968SP,2013-04-19 17:18:00,
2013-04-19 13:23:00,53.6,46.4,29.91,NW,306,4.6,8.7,79,0.00,,,1.04,WUHU216WMR968SP,2013-04-19 17:23:00,
2013-04-19 13:28:00,54.0,46.4,29.91,WNW,302,0.0,6.0,79,0.00,,,1.04,WUHU216WMR968SP,2013-04-19 17:28:00,
2013-04-19 13:33:00,54.0,46.4,29.91,NW,307,0.0,7.4,77,0.00,,,1.04,WUHU216WMR968SP,2013-04-19 17:33:00,
2013-04-19 13:38:00,53.6,46.4,29.91,WNW,297,5.4,8.1,76,0.00,,,1.04,WUHU216WMR968SP,2013-04-19 17:38:00,
2013-04-19 13:43:00,53.1,46.4,29.91,NW,309,4.1,8.1,77,0.00,,,1.04,WUHU216WMR968SP,2013-04-19 17:43:00,
2013-04-19 13:48:00,52.9,46.4,29.91,WNW,297,0.0,8.1,77,0.00,,,1.04,WUHU216WMR968SP,2013-04-19 17:48:00,
2013-04-19 13:53:00,53.1,46.4,29.94,West,271,3.3,8.1,77,0.00,,,1.04,WUHU216WMR968SP,2013-04-19 17:53:00,
2013-04-19 13:58:00,53.1,46.4,29.94,North,350,4.6,6.0,76,0.00,,,1.04,WUHU216WMR968SP,2013-04-19 17:58:00,
2013-04-19 14:03:00,53.1,46.4,29.94,NW,312,5.4,8.1,76,0.00,,,1.04,WUHU216WMR968SP,2013-04-19 18:03:00,
2013-04-19 14:08:00,53.2,46.4,29.94,WNW,283,4.6,9.5,75,0.00,,,1.04,WUHU216WMR968SP,2013-04-19 18:08:00,
2013-04-19 14:13:00,53.2,46.4,29.94,West,277,0.0,9.5,75,0.00,,,1.04,WUHU216WMR968SP,2013-04-19 18:13:00,
2013-04-19 14:19:00,53.2,46.4,29.94,WNW,287,3.3,7.4,75,0.00,,,1.04,WUHU216WMR968SP,2013-04-19 18:19:00,
2013-04-19 14:24:00,53.2,46.4,29.94,West,280,0.0,7.4,75,0.00,,,1.04,WUHU216WMR968SP,2013-04-19 18:24:00,
2013-04-19 14:29:00,52.7,46.4,29.94,NW,310,3.3,6.0,75,0.00,,,1.04,WUHU216WMR968SP,2013-04-19 18:29:00,
2013-04-19 14:34:00,52.5,44.6,29.94,West,280,3.3,6.0,74,0.00,,,1.04,WUHU216WMR968SP,2013-04-19 18:34:00,
2013-04-19 14:39:00,52.3,44.6,29.94,NW,323,4.1,7.4,74,0.00,,,1.04,WUHU216WMR968SP,2013-04-19 18:39:00,
2013-04-19 14:44:00,52.3,44.6,29.94,North,349,0.0,7.4,75,0.00,,,1.04,WUHU216WMR968SP,2013-04-19 18:44:00,
2013-04-19 14:49:00,52.3,44.6,29.94,NNW,327,0.0,6.0,75,0.00,,,1.04,WUHU216WMR968SP,2013-04-19 18:49:00,
2013-04-19 14:54:00,52.2,44.6,29.94,NW,325,4.1,6.0,75,0.00,,,1.04,WUHU216WMR968SP,2013-04-19 18:54:00,
2013-04-19 14:59:00,51.6,44.6,29.94,NW,323,4.1,6.0,75,0.00,,,1.04,WUHU216WMR968SP,2013-04-19 18:59:00,
2013-04-19 15:04:00,51.6,44.6,29.94,NW,316,3.3,6.0,75,0.00,,,1.04,WUHU216WMR968SP,2013-04-19 19:04:00,
2013-04-19 15:09:00,52.0,44.6,29.97,WNW,300,4.1,6.0,75,0.00,,,1.04,WUHU216WMR968SP,2013-04-19 19:09:00,
2013-04-19 15:14:00,53.1,46.4,29.97,WSW,256,4.1,6.0,75,0.00,,,1.04,WUHU216WMR968SP,2013-04-19 19:14:00,
2013-04-19 15:19:00,53.8,44.6,29.97,NW,324,5.4,8.7,73,0.00,,,1.04,WUHU216WMR968SP,2013-04-19 19:19:00,
2013-04-19 15:24:00,54.9,46.4,29.97,NNW,328,3.3,8.7,73,0.00,,,1.04,WUHU216WMR968SP,2013-04-19 19:24:00,
2013-04-19 15:29:00,54.7,46.4,29.97,WNW,299,5.4,8.7,71,0.00,,,1.04,WUHU216WMR968SP,2013-04-19 19:29:00,
2013-04-19 15:34:00,54.0,44.6,29.97,WSW,246,4.1,8.7,69,0.00,,,1.04,WUHU216WMR968SP,2013-04-19 19:34:00,
2013-04-19 15:39:00,53.4,44.6,29.97,WSW,251,4.1,8.1,70,0.00,,,1.04,WUHU216WMR968SP,2013-04-19 19:39:00,
2013-04-19 15:44:00,54.0,44.6,29.97,NW,320,3.3,5.4,71,0.00,,,1.04,WUHU216WMR968SP,2013-04-19 19:44:00,
2013-04-19 15:49:00,54.0,44.6,29.97,NW,307,4.1,5.4,70,0.00,,,1.04,WUHU216WMR968SP,2013-04-19 19:49:00,
2013-04-19 15:54:00,53.2,44.6,29.97,NW,311,0.0,8.1,69,0.00,,,1.04,WUHU216WMR968SP,2013-04-19 19:54:00,
2013-04-19 15:59:00,52.7,44.6,29.97,NW,316,3.3,8.1,69,0.00,,,1.04,WUHU216WMR968SP,2013-04-19 19:59:00,
2013-04-19 16:04:00,52.7,44.6,29.97,WNW,299,3.3,6.0,69,0.00,,,1.04,WUHU216WMR968SP,2013-04-19 20:04:00,
2013-04-19 16:09:00,52.5,42.8,29.97,WNW,301,3.3,6.0,69,0.00,,,1.04,WUHU216WMR968SP,2013-04-19 20:09:00,
2013-04-19 16:14:00,52.5,42.8,29.97,NW,304,3.3,9.5,69,0.00,,,1.04,WUHU216WMR968SP,2013-04-19 20:14:00,
2013-04-19 16:19:00,52.9,44.6,29.97,WNW,300,4.6,9.5,69,0.00,,,1.04,WUHU216WMR968SP,2013-04-19 20:19:00,
2013-04-19 16:24:00,52.9,44.6,29.94,NNW,344,3.3,7.4,69,0.00,,,1.04,WUHU216WMR968SP,2013-04-19 20:24:00,
2013-04-19 16:29:00,53.1,44.6,29.94,NW,309,3.3,7.4,69,0.00,,,1.04,WUHU216WMR968SP,2013-04-19 20:29:00,
2013-04-19 16:34:00,53.4,42.8,29.94,WSW,256,4.1,7.4,68,0.00,,,1.04,WUHU216WMR968SP,2013-04-19 20:34:00,
2013-04-19 16:39:00,54.0,42.8,29.97,WNW,282,3.3,7.4,67,0.00,,,1.04,WUHU216WMR968SP,2013-04-19 20:39:00,
2013-04-19 16:44:00,54.1,42.8,29.97,WSW,241,4.1,8.7,65,0.00,,,1.04,WUHU216WMR968SP,2013-04-19 20:44:00,
2013-04-19 16:49:00,54.1,42.8,29.97,SSE,160,0.0,8.7,65,0.00,,,1.04,WUHU216WMR968SP,2013-04-19 20:49:00,
2013-04-19 16:54:00,54.1,42.8,29.94,West,281,0.0,5.4,65,0.00,,,1.04,WUHU216WMR968SP,2013-04-19 20:54:00,
2013-04-19 16:59:00,54.1,41.0,29.94,NW,321,3.3,5.4,64,0.00,,,1.04,WUHU216WMR968SP,2013-04-19 20:59:00,
2013-04-19 17:04:00,54.7,42.8,29.94,NW,322,0.0,5.4,64,0.00,,,1.04,WUHU216WMR968SP,2013-04-19 21:04:00,
2013-04-19 17:10:00,55.0,42.8,29.94,WNW,293,3.3,5.4,63,0.00,,,1.04,WUHU216WMR968SP,2013-04-19 21:10:00,
2013-04-19 17:15:00,55.2,42.8,29.94,NW,306,0.0,5.4,63,0.00,,,1.04,WUHU216WMR968SP,2013-04-19 21:15:00,
2013-04-19 17:20:00,55.8,42.8,29.94,SW,229,0.0,5.4,63,0.00,,,1.04,WUHU216WMR968SP,2013-04-19 21:20:00,
2013-04-19 17:25:00,55.2,42.8,29.97,WSW,245,5.4,6.0,61,0.00,,,1.04,WUHU216WMR968SP,2013-04-19 21:25:00,
2013-04-19 17:30:00,54.9,42.8,29.97,NNW,328,0.0,6.0,61,0.00,,,1.04,WUHU216WMR968SP,2013-04-19 21:30:00,
2013-04-19 17:35:00,55.4,41.0,29.97,WSW,239,3.3,7.4,60,0.00,,,1.04,WUHU216WMR968SP,2013-04-19 21:35:00,
2013-04-19 17:40:00,55.2,41.0,29.97,West,280,0.0,7.4,60,0.00,,,1.04,WUHU216WMR968SP,2013-04-19 21:40:00,
2013-04-19 17:45:00,54.9,41.0,29.97,NNW,345,0.0,4.1,60,0.00,,,1.04,WUHU216WMR968SP,2013-04-19 21:45:00,
2013-04-19 17:50:00,55.0,41.0,29.97,NNW,327,0.0,4.6,60,0.00,,,1.04,WUHU216WMR968SP,2013-04-19 21:50:00,
2013-04-19 17:55:00,55.4,41.0,29.97,WSW,248,0.0,4.6,60,0.00,,,1.04,WUHU216WMR968SP,2013-04-19 21:55:00,
2013-04-19 18:00:00,55.9,41.0,29.97,WNW,301,3.3,6.0,59,0.00,,,1.04,WUHU216WMR968SP,2013-04-19 22:00:00,
2013-04-19 18:05:00,55.8,41.0,29.97,NW,308,0.0,6.0,59,0.00,,,1.04,WUHU216WMR968SP,2013-04-19 22:05:00,
2013-04-19 18:10:00,54.9,41.0,29.97,WNW,293,3.3,6.8,58,0.00,,,1.04,WUHU216WMR968SP,2013-04-19 22:10:00,
2013-04-19 18:15:00,54.3,39.2,29.97,NW,318,0.0,6.8,58,0.00,,,1.04,WUHU216WMR968SP,2013-04-19 22:15:00,
2013-04-19 18:20:00,54.1,39.2,29.97,NW,321,0.0,7.4,58,0.00,,,1.04,WUHU216WMR968SP,2013-04-19 22:20:00,
2013-04-19 18:25:00,54.3,39.2,29.97,WNW,300,4.1,7.4,58,0.00,,,1.04,WUHU216WMR968SP,2013-04-19 22:25:00,
2013-04-19 18:30:00,54.3,39.2,29.97,NW,314,4.6,6.0,59,0.00,,,1.04,WUHU216WMR968SP,2013-04-19 22:30:00,
2013-04-19 18:35:00,54.1,39.2,29.97,NNW,342,4.6,6.0,58,0.00,,,1.04,WUHU216WMR968SP,2013-04-19 22:35:00,
2013-04-19 18:40:00,53.6,39.2,29.97,NW,325,3.3,6.0,58,0.00,,,1.04,WUHU216WMR968SP,2013-04-19 22:40:00,
2013-04-19 18:45:00,53.4,39.2,29.97,WNW,301,3.3,8.1,57,0.00,,,1.04,WUHU216WMR968SP,2013-04-19 22:45:00,
2013-04-19 18:50:00,53.2,39.2,29.97,NNW,329,4.1,8.1,57,0.00,,,1.04,WUHU216WMR968SP,2013-04-19 22:50:00,
2013-04-19 18:55:00,53.1,39.2,29.97,NW,310,4.6,6.0,57,0.00,,,1.04,WUHU216WMR968SP,2013-04-19 22:55:00,
2013-04-19 19:00:00,53.2,39.2,29.97,NW,315,4.6,6.0,57,0.00,,,1.04,WUHU216WMR968SP,2013-04-19 23:00:00,
2013-04-19 19:05:00,52.9,37.4,29.97,NW,304,4.6,7.4,55,0.00,,,1.04,WUHU216WMR968SP,2013-04-19 23:05:00,
2013-04-19 19:10:00,52.3,35.6,29.97,NW,326,0.0,7.4,55,0.00,,,1.04,WUHU216WMR968SP,2013-04-19 23:10:00,
2013-04-19 19:15:00,51.8,37.4,29.97,WNW,301,0.0,7.4,57,0.00,,,1.04,WUHU216WMR968SP,2013-04-19 23:15:00,
2013-04-19 19:20:00,51.6,37.4,30.00,NW,311,0.0,5.4,58,0.00,,,1.04,WUHU216WMR968SP,2013-04-19 23:20:00,
2013-04-19 19:26:00,51.6,37.4,30.00,NNW,328,0.0,5.4,58,0.00,,,1.04,WUHU216WMR968SP,2013-04-19 23:26:00,
2013-04-19 19:31:00,51.4,37.4,30.00,NW,317,0.0,5.4,58,0.00,,,1.04,WUHU216WMR968SP,2013-04-19 23:31:00,
2013-04-19 19:36:00,51.4,37.4,30.00,NW,318,0.0,5.4,58,0.00,,,1.04,WUHU216WMR968SP,2013-04-19 23:36:00,
2013-04-19 19:41:00,51.3,37.4,30.00,NW,326,0.0,5.4,59,0.00,,,1.04,WUHU216WMR968SP,2013-04-19 23:41:00,
2013-04-19 19:46:00,51.3,37.4,30.00,NW,313,4.1,6.0,59,0.00,,,1.04,WUHU216WMR968SP,2013-04-19 23:46:00,
2013-04-19 19:51:00,51.1,37.4,30.00,NW,307,0.0,6.0,60,0.00,,,1.04,WUHU216WMR968SP,2013-04-19 23:51:00,
2013-04-19 19:56:00,51.1,37.4,30.00,NNW,340,4.1,8.1,59,0.00,,,1.04,WUHU216WMR968SP,2013-04-19 23:56:00,
2013-04-19 20:01:00,50.9,37.4,30.00,WNW,301,4.1,8.1,58,0.00,,,1.04,WUHU216WMR968SP,2013-04-20 00:01:00,
2013-04-19 20:06:00,50.7,35.6,30.00,NW,311,0.0,7.4,58,0.00,,,1.04,WUHU216WMR968SP,2013-04-20 00:06:00,
2013-04-19 20:11:00,50.7,35.6,30.00,WNW,295,6.0,8.1,58,0.00,,,1.04,WUHU216WMR968SP,2013-04-20 00:11:00,
2013-04-19 20:16:00,50.7,35.6,30.00,WNW,300,0.0,8.1,56,0.00,,,1.04,WUHU216WMR968SP,2013-04-20 00:16:00,
2013-04-19 20:21:00,50.5,35.6,30.03,NW,318,0.0,8.1,56,0.00,,,1.04,WUHU216WMR968SP,2013-04-20 00:21:00,
2013-04-19 20:26:00,50.4,35.6,30.03,NW,325,4.1,6.0,57,0.00,,,1.04,WUHU216WMR968SP,2013-04-20 00:26:00,
2013-04-19 20:31:00,50.2,35.6,30.03,NW,318,3.3,6.0,57,0.00,,,1.04,WUHU216WMR968SP,2013-04-20 00:31:00,
2013-04-19 20:36:00,49.8,35.6,30.03,NNW,329,0.0,4.6,58,0.00,,,1.04,WUHU216WMR968SP,2013-04-20 00:36:00,
2013-04-19 20:41:00,49.6,35.6,30.03,NW,316,3.3,5.4,57,0.00,,,1.04,WUHU216WMR968SP,2013-04-20 00:41:00,
2013-04-19 20:46:00,49.6,35.6,30.03,NNW,327,4.6,6.0,57,0.00,,,1.04,WUHU216WMR968SP,2013-04-20 00:46:00,
2013-04-19 20:51:00,49.8,35.6,30.03,NW,304,4.6,7.4,57,0.00,,,1.04,WUHU216WMR968SP,2013-04-20 00:51:00,
2013-04-19 20:56:00,49.6,35.6,30.03,NNW,329,3.3,7.4,57,0.00,,,1.04,WUHU216WMR968SP,2013-04-20 00:56:00,
2013-04-19 21:01:00,49.5,35.6,30.03,NW,324,3.3,6.0,58,0.00,,,1.04,WUHU216WMR968SP,2013-04-20 01:01:00,
2013-04-19 21:06:00,49.3,35.6,30.03,NW,313,0.0,5.4,59,0.00,,,1.04,WUHU216WMR968SP,2013-04-20 01:06:00,
2013-04-19 21:11:00,48.9,35.6,30.03,NW,313,0.0,3.3,60,0.00,,,1.04,WUHU216WMR968SP,2013-04-20 01:11:00,
2013-04-19 21:16:00,48.6,35.6,30.03,NW,313,0.0,3.3,60,0.00,,,1.04,WUHU216WMR968SP,2013-04-20 01:16:00,
2013-04-19 21:21:00,48.6,33.8,30.06,NNW,328,0.0,8.1,59,0.00,,,1.04,WUHU216WMR968SP,2013-04-20 01:21:00,
2013-04-19 21:26:00,48.4,35.6,30.06,North,353,0.0,8.1,60,0.00,,,1.04,WUHU216WMR968SP,2013-04-20 01:26:00,
2013-04-19 21:31:00,48.2,35.6,30.06,NNW,329,0.0,6.0,60,0.00,,,1.04,WUHU216WMR968SP,2013-04-20 01:31:00,
2013-04-19 21:36:00,48.2,35.6,30.06,NW,323,0.0,6.0,61,0.00,,,1.04,WUHU216WMR968SP,2013-04-20 01:36:00,
2013-04-19 21:41:00,48.2,35.6,30.06,NW,325,0.0,4.1,61,0.00,,,1.04,WUHU216WMR968SP,2013-04-20 01:41:00,
2013-04-19 21:47:00,48.0,35.6,30.06,NW,325,0.0,4.1,62,0.00,,,1.04,WUHU216WMR968SP,2013-04-20 01:47:00,
2013-04-19 21:52:00,47.7,35.6,30.06,NNW,330,0.0,0.0,63,0.00,,,1.04,WUHU216WMR968SP,2013-04-20 01:52:00,
2013-04-19 21:57:00,47.5,35.6,30.06,NW,322,0.0,0.0,63,0.00,,,1.04,WUHU216WMR968SP,2013-04-20 01:57:00,
2013-04-19 22:02:00,47.5,35.6,30.06,NNW,329,0.0,4.1,63,0.00,,,1.04,WUHU216WMR968SP,2013-04-20 02:02:00,
2013-04-19 22:07:00,47.3,35.6,30.09,NW,321,3.3,5.4,63,0.00,,,1.04,WUHU216WMR968SP,2013-04-20 02:07:00,
2013-04-19 22:12:00,47.5,35.6,30.09,NNW,339,4.1,6.0,62,0.00,,,1.04,WUHU216WMR968SP,2013-04-20 02:12:00,
2013-04-19 22:17:00,47.5,35.6,30.09,NNW,340,0.0,6.0,62,0.00,,,1.04,WUHU216WMR968SP,2013-04-20 02:17:00,
2013-04-19 22:22:00,47.5,35.6,30.09,NW,313,4.1,5.4,63,0.00,,,1.04,WUHU216WMR968SP,2013-04-20 02:22:00,
2013-04-19 22:27:00,47.5,35.6,30.09,NW,323,3.3,5.4,63,0.00,,,1.04,WUHU216WMR968SP,2013-04-20 02:27:00,
2013-04-19 22:32:00,47.8,35.6,30.09,NW,304,3.3,7.4,63,0.00,,,1.04,WUHU216WMR968SP,2013-04-20 02:32:00,
2013-04-19 22:37:00,47.8,35.6,30.09,West,277,0.0,7.4,63,0.00,,,1.04,WUHU216WMR968SP,2013-04-20 02:37:00,
2013-04-19 22:42:00,47.8,35.6,30.09,NW,322,0.0,4.6,63,0.00,,,1.04,WUHU216WMR968SP,2013-04-20 02:42:00,
2013-04-19 22:47:00,47.8,35.6,30.09,NW,316,4.1,6.0,61,0.00,,,1.04,WUHU216WMR968SP,2013-04-20 02:47:00,
2013-04-19 22:52:00,47.8,35.6,30.12,North,353,0.0,6.0,61,0.00,,,1.04,WUHU216WMR968SP,2013-04-20 02:52:00,
2013-04-19 22:57:00,47.8,35.6,30.12,NW,311,3.3,6.0,62,0.00,,,1.04,WUHU216WMR968SP,2013-04-20 02:57:00,
2013-04-19 23:02:00,47.8,35.6,30.12,NW,313,0.0,5.4,61,0.00,,,1.04,WUHU216WMR968SP,2013-04-20 03:02:00,
2013-04-19 23:07:00,47.8,35.6,30.12,North,6,0.0,5.4,61,0.00,,,1.04,WUHU216WMR968SP,2013-04-20 03:07:00,
2013-04-19 23:12:00,47.7,35.6,30.12,North,353,0.0,5.4,61,0.00,,,1.04,WUHU216WMR968SP,2013-04-20 03:12:00,
2013-04-19 23:17:00,47.7,35.6,30.12,NW,324,3.3,4.6,61,0.00,,,1.04,WUHU216WMR968SP,2013-04-20 03:17:00,
2013-04-19 23:22:00,47.5,35.6,30.12,NW,305,4.6,7.4,61,0.00,,,1.04,WUHU216WMR968SP,2013-04-20 03:22:00,
2013-04-19 23:27:00,47.3,35.6,30.12,NNW,337,4.6,7.4,61,0.00,,,1.04,WUHU216WMR968SP,2013-04-20 03:27:00,
2013-04-19 23:33:00,47.3,35.6,30.12,NW,318,4.6,6.0,60,0.00,,,1.04,WUHU216WMR968SP,2013-04-20 03:33:00,
2013-04-19 23:38:00,47.1,33.8,30.12,NW,318,3.3,6.0,60,0.00,,,1.04,WUHU216WMR968SP,2013-04-20 03:38:00,
2013-04-19 23:43:00,46.9,33.8,30.12,NW,324,4.1,6.0,60,0.00,,,1.04,WUHU216WMR968SP,2013-04-20 03:43:00,
2013-04-19 23:48:00,46.8,33.8,30.12,NW,307,4.6,8.1,60,0.00,,,1.04,WUHU216WMR968SP,2013-04-20 03:48:00,
2013-04-19 23:53:00,46.8,33.8,30.12,WNW,292,4.1,8.1,60,0.00,,,1.04,WUHU216WMR968SP,2013-04-20 03:53:00,
2013-04-19 23:58:00,46.6,33.8,30.12,NNE,17,3.3,6.0,60,0.00,,,1.04,WUHU216WMR968SP,2013-04-20 03:58:00,